Flag for U.S.A. Weather past 2 weeks in Fremont, California, U.S.A.

Now
55 °F

Overcast.


Feels Like: 55 °F
Forecast: 54 / 73 °F
Wind: 3 mph from Southwest

Location: Moffett Field

Current Time: May 29, 2015 at 5:36:41 AM

Latest Report: May 29, 2015 at 4:56 AM


Visibility: 10 mi

Pressure: 30.00 "Hg

Humidity: 83%

Dew point: 50 °F

Location of FremontLocation

Historic Weather in Fremont — Graph

°F

Fremont temperature yesterday

Maximum temperature yesterday: 66 °F (at 3:56 PM)
Minimum temperature yesterday: 54 °F (at 4:56 AM)
Average temperature yesterday: 59 °F

Past Weeks' High & Low Weather Summary

 TemperatureHumidityPressure
High68 °F (May 26, 2:56 PM)93% (May 15, 5:56 AM)30.14 "Hg (May 15, 5:56 AM)
Low49 °F (May 15, 5:56 AM)50% (May 14, 11:56 AM)29.81 "Hg (May 14, 3:56 PM)
Average59 °F71%30.01 "Hg
* Reported May 14 3:56 AM — May 29 3:56 AM, Fremont, Weather by CustomWeather, © 2015

Note: Actual official high and low records may vary slightly from our data, if they occured in-between our weather recording intervals... More about our weather records

Advertising

Fremont weather history for previous 24 hours

 ConditionsComfort  
Time TempWeatherWind HumidityBarometerVisibility
3:56 AM
Fri, May 29
55 °FOvercast.No wind87%30.01 "Hg10 mi
2:56 AM55 °FLow clouds.6 mph87%30.01 "Hg10 mi
1:56 AM56 °FLow clouds.5 mph87%30.01 "Hg10 mi
12:56 AM56 °FLow clouds.7 mph90%30.02 "Hg10 mi
11:56 PM
Thu, May 28
57 °FOvercast.3 mph87%30.02 "Hg10 mi
10:56 PM56 °FLow clouds.8 mph90%30.03 "Hg10 mi
9:56 PM57 °FOvercast.6 mph87%30.03 "Hg10 mi
8:56 PM57 °FPartly sunny.13 mph87%30.02 "Hg10 mi
7:56 PM59 °FPassing clouds.13 mph81%30.00 "Hg10 mi
6:56 PM61 °FSunny.16 mph78%29.99 "Hg10 mi
5:56 PM63 °FSunny.14 mph73%29.99 "Hg10 mi
4:56 PM64 °FSunny.14 mph70%30.00 "Hg10 mi
3:56 PM66 °FSunny.15 mph65%30.01 "Hg10 mi
2:56 PM65 °FSunny.18 mph66%30.03 "Hg10 mi
1:56 PM63 °FSunny.13 mph70%30.04 "Hg10 mi
12:56 PM61 °FPassing clouds.13 mph75%30.05 "Hg10 mi
11:56 AM62 °FSunny.9 mph70%30.06 "Hg10 mi
10:56 AM61 °FSunny.8 mph70%30.06 "Hg10 mi
9:56 AM60 °FScattered clouds.5 mph72%30.06 "Hg10 mi
8:56 AM59 °FPartly sunny.No wind72%30.07 "Hg10 mi
7:56 AM56 °FOvercast.No wind81%30.06 "Hg10 mi
6:56 AM55 °FOvercast.5 mph83%30.06 "Hg10 mi
5:56 AM54 °FOvercast.3 mph83%30.05 "Hg10 mi
Weather by CustomWeather, © 2015

See weather overviewHow to use our weather pages